Location: Newark
(42.8481°N, 0.4872°E)
Time: 07:50:13
(UTC+00:00)

Vanguard 3 - Pass Details

Date: 28 October 2020
Orbit: 508 x 3262 km, 33.3° (Epoch: 28 November)

Event Time Altitude Azimuth Distance (km) Brightness Sun altitude
Rises 11:25:39 0° 280° (W) 7,203 11.9 33.7°
Reaches altitude 10° 11:31:26 10° 272° (W) 6,035 11.6 33.7°
Maximum altitude 11:46:08 32° 219° (SW) 3,650 11.7 33.8°
Drops below altitude 10° 11:56:27 10° 161° (SSE) 4,189 11.9 33.7°
Sets 11:59:39 0° 151° (SSE) 4,817 11.8 33.6°
